OneWeb SL0549

operational
NORAD ID: 56051 Int'l Des: 2023-043 Owner: ONEWEBN Country: UK Constellation: oneweb
LEOCIRCULARPOLARONEWEB_TYPE

OneWeb SL0549について

説明を読み込み中...

リアルタイム位置

3D地球を読み込み中...

次回通過

高度履歴

Altitude vs Time

uPlot chart will show altitude changes over time

軌道要素

1 56051U 23043F 25353.53822886 .00000003 00000-0 -23477-4 0 9990
2 56051 87.9224 279.8191 0001799 67.1112 293.0212 13.21826274134498
Epoch: Dec 19, 2025 • Age: 11 hours

現在のステータス

高度 1179.3 km
速度 7.26 km/s
衛星直下点 8.01°N, 166.68°W
打ち上げ日 Mar 26, 2023
運用期間 2.7 years
タイプ internet

技術仕様

分類 Payload
質量 148.00 kg
乾燥質量 140.00 kg
総質量 148.00 kg
長さ 1.30 m
直径 1.00 m
スパン 5.00 m
形状 Trapezoid+2 pan
製造者 ONEWUS
バスタイプ ARROW
フェーズステータス In Orbit
所有者/国 ONEWEBN/UK

大規模コンステレーション

Loading constellations...